COSMOS 2251 DEB, 37499

Orbit data source: Space-Track

COSMOS 2251 DEB, 37499 is space debris in LEO originally from a launch on Wed, 16 Jun 1993 UTC launched from the Plesetsk Missile And Space Complex (PKMTR). The debris from Iridium 33, an American commercial communications satellite, has been tracked extensively since its accidental collision with the defunct Russian satellite Cosmos 2251 in 2009. This event, occurring at high speed in low Earth orbit (LEO), generated thousands of pieces of space debris, significantly increasing the risk of further collisions. The Iridium 33 debris cloud has impacted space traffic management and orbital debris mitigation strategies, making it a subject of ongoing study in space situational awareness.

Loading next visibility...
Identifier
37499, 1993-036BMC
Orbit
LEO
Country
Flag of CISCIS
Related business
Manufacturer
Unknown
Mission
Spacecraft
Bus & Motor
Unknown
Mass
Unknown
Launch date (UTC)
1993-06-16 (33 years ago)
Launch vehicle
Unknown
Launch site
Plesetsk Missile And Space Complex (PKMTR)
Object type
Payload
Rocket body
Debris
Shape & HBR
Unknown shape, 0.1 m
Radar Cross Section
Small (<0.1 m²)

Expand to show TLE details & history
Last TLE update: 1 day ago

TLE from 1 day ago
0 COSMOS 2251 DEB
1 37499U 93036BMC 26144.92811119  .00000247  00000-0  96576-4 0  9992
2 37499  74.0388  23.4069 0027109  61.7883 298.6001 14.34488443874895
Epoch: 2026-05-24T22:16Z
TLE epoch observation values (Epoch: 2026-05-24T22:16:28.806Z)
Latitude
-0.00009°
Longitude
166.76363°
Altitude
770.131 km
Speed
7.474 km/s
True Right ascension
01h 33m 37s
True Declination
0° 00' 00"
Sunlit
Object was in daylight at epoch
Visualization orbit readout
Latitude
Unknown
Longitude
Unknown
Altitude
Unknown
Speed
Unknown
Apparent Right ascension
Unknown
Apparent Declination
Unknown
Sunlit
N/A
Visualization observer readout
Local Sidereal Time
17:18:12
Azimuth
Unknown
Elevation
Unknown
Doppler factor
Unknown
Orbital elements
Apogee altitude
793.782 km
Perigee altitude
755.003 km
Semi-major axis
7,152.529 km
Eccentricity
0.00271
Inclination
74.0388°
RAAN
23.4069°
Arg. of periapsis
61.7883°
True anomaly
298.32692°
Mean anomaly
298.6001°
Eccentric anomaly
298.46355°
Mean motion
3.58801 °/min
Orbital period
100.33 mins
BSTAR
0.000096576

Documentation

Showing up to 5 results
|